AirNav   Pilot Hours Calculator
 
 1443 users online  

35A Union County Airport, Troy Shelton Field
Union, South Carolina, USA

GOING TO UNION?


FAA INFORMATION EFFECTIVE 10 OCTOBER 2019

Location

FAA Identifier: 35A
Lat/Long: 34-41-13.0300N 081-38-28.2000W
34-41.217167N 081-38.470000W
34.6869528,-81.6411667
(estimated)
Elevation: 610.2 ft. / 186 m (estimated)
Variation: 06W (2000)
From city: 1 mile SW of UNION, SC
Time zone: UTC -4 (UTC -5 during Standard Time)
Zip code: 29379

Airport Operations

Airport use: Open to the public
Activation date: 09/1970
Control tower: no
ARTCC: ATLANTA CENTER
FSS: ANDERSON FLIGHT SERVICE STATION
NOTAMs facility: AND (NOTAM-D service available)
Attendance: MON-FRI 0800-1700
Wind indicator: lighted
Segmented circle: yes
Lights: MIRL RY 05/23 PRESET MED INTST DUSK-0000; AFTER 0000 ACTVT - CTAF. ACTVT PAPI RYS 05 & 23 - CTAF.
Beacon: white-green (lighted land airport)
Operates sunset to sunrise.

Airport Communications

CTAF/UNICOM: 122.7
WX AWOS-3PT: 119.45 (864-427-1514)
GREER APPROACH: 119.4 [1200-0400Z++]
GREER DEPARTURE: 119.4 [1200-0400Z++]
WX AWOS-3 at LUX (19 nm SW): 123.975 (864-682-3639)
  • APCH/DEP SVC PRVDD BY ATLANTA ARTCC ON FREQS 135.35/263.125 (OWING RCAG) WHEN APCH CTL CLSD.

Nearby radio navigation aids

VOR radial/distance  VOR name  Freq  Var
SPAr148/25.1SPARTANBURG VORTAC115.7002W
GRDr045/36.4GREENWOOD VORTAC115.5001W

 
NDB name  Hdg/Dist  Freq  Var  ID
UNION COUNTYat field32606WUOT ..- --- -
FAIRMONT132/21.324805WFRT ..-. .-. -
CHESTER261/22.522006WDCM -.. -.-. --
ENOREE006/22.627807WEOE . --- .
FIRST RIVER190/34.041706WSLP ... .-.. .--.
CORONACA047/34.123907WGIW --. .. .--
STONIA224/38.526006WGHJ --. .... .---
LANCASTER274/38.640007WLKR .-.. -.- .-.

Airport Services

Fuel available: 100LL
SELF-SERVE FUEL AVBL 24 HRS. FOR SVC AFT HRS CALL 864-426-3003.
Parking: hangars and tiedowns
Airframe service: MAJOR
Powerplant service: MAJOR
Bottled oxygen: NONE
Bulk oxygen: NONE

Runway Information

Runway 5/23

Dimensions: 3508 x 60 ft. / 1069 x 18 m
Surface: asphalt, in good condition
Weight bearing capacity: 
Single wheel: 12.5
Runway edge lights: medium intensity
Gradient: SOUTHWEST.
RUNWAY 5  RUNWAY 23
Latitude: 34-41.020500N34-41.413833N
Longitude: 081-38.726667W081-38.213333W
Elevation: 573.4 ft.610.0 ft.
Traffic pattern: leftleft
Runway heading: 053 magnetic, 047 true233 magnetic, 227 true
Markings: nonprecision, in good conditionbasic, in good condition
Visual slope indicator: 2-light PAPI on left (4.00 degrees glide path)2-light PAPI on left (4.00 degrees glide path)
Touchdown point: yes, no lightsyes, no lights
Obstructions: none66 ft. tree, 1466 ft. from runway, 103 ft. left of centerline, 19:1 slope to clear

Airport Ownership and Management from official FAA records

Ownership: Publicly-owned
Owner: UNION COUNTY
PO DRAWER G
UNION, SC 29379
Phone 864-429-1600
Manager: RONNIE WADE
UNION COUNTY AIRPORT, 198 AIRPORT RD
UNION, SC 29379
Phone 864-429-1680

Airport Operational Statistics

Aircraft based on the field: 10
Single engine airplanes: 9
Multi engine airplanes: 1
    
Aircraft operations: avg 57/week *
56% transient general aviation
44% local general aviation
* for 12-month period ending 17 July 2019

Additional Remarks

FOR CD CTC GREER APCH AT 864-877-8275. WHEN GREER APCH CLSD, FOR CD CTC ATLANTA ARTCC AT 770-210-7692.

Instrument Procedures

NOTE: All procedures below are presented as PDF files. If you need a reader for these files, you should download the free Adobe Reader.

NOT FOR NAVIGATION. Please procure official charts for flight.
FAA instrument procedures published for use from 10 October 2019 at 0901Z to 17 November 2019 at 0900Z.

 
IAPs - Instrument Approach Procedures
RNAV (GPS) RWY 05 **CHANGED**   download (185KB)
RNAV (GPS) RWY 23 **CHANGED**   download (184KB)
NDB RWY 05 **CHANGED**   download (168KB)
NOTE: Special Take-Off Minimums/Departure Procedures apply   download (141KB)

Other nearby airports with instrument procedures:

KLUX - Laurens County Airport (19 nm SW)
KSPA - Spartanburg Downtown Memorial Airport/Simpson Field (21 nm NW)
KEOE - Newberry County Airport (23 nm S)
KDCM - Chester Catawba Regional Airport (23 nm E)
KGSP - Greenville Spartanburg International Airport (31 nm NW)
 
Loc | Ops | Rwys | IFR | FBO | Links
Com | Nav | Svcs | Stats | Notes
Area around 35A (Union County Airport, Troy Shelton Field)
 
Road maps at: MapQuest Bing Google
 
Aerial photo
WARNING: Photo may not be current or correct
Aerial photo of 35A (Union County Airport, Troy Shelton Field)
Do you have a better or more recent aerial photo of Union County Airport, Troy Shelton Field that you would like to share? If so, please send us your photo.

 
Sectional chart

 
Airport distance calculator
Flying to Union County Airport, Troy Shelton Field? Find the distance to fly.

From to 35A

Sunrise and sunset
Times for 16-Oct-2019
 Local
(UTC-4)
 Zulu
(UTC)
Morning civil twilight07:0911:09
Sunrise07:3411:34
Sunset18:5022:50
Evening civil twilight19:1623:16

Current date and time
Zulu (UTC)  16-Oct-2019 16:11:29
Local (UTC-4)  16-Oct-2019 12:11:29
 
METAR
KLUX 
19nm SW 
161555Z AUTO 27005KT 10SM OVC004 17/17 A2974 RMK AO2
KDCM 
23nm E 
161555Z AUTO 00000KT 10SM OVC005 17/17 A2972 RMK AO2
KSPA 
25nm NW 
161555Z AUTO 25003KT 10SM OVC009 17/15 A2974 RMK AO2
KGSP 
31nm NW 
161553Z 25007KT 10SM OVC013 18/16 A2975 RMK AO2 SLP067 T01830156
KUZA 
34nm NE 
161554Z AUTO 34006KT 10SM OVC005 18/16 A2972 RMK AO2 RAE05 SLP059 P0000 T01780156
KEHO 
34nm N 
161555Z AUTO 03003KT 10SM OVC006 15/14 A2973 RMK AO2 T01520144
KFDW 
34nm SE 
161555Z AUTO 24008G14KT 224V294 10SM OVC005 18/18 A2971 RMK AO1
KGMU 
36nm W 
161553Z 26010KT 10SM OVC011 19/17 A2976 RMK AO2 SLP072 T01890167
KGRD 
36nm SW 
161556Z AUTO 26009KT 10SM OVC005 18/18 A2976 RMK AO2 CIG 005V010 SLP073 T01830178
KGYH 
37nm W 
161547Z 26009KT 10SM BKN010 19/17 A2975
TAF
KGSP 
31nm NW 
161324Z 1613/1712 VRB04KT 3SM BR VCSH BKN004 OVC009 TEMPO 1614/1616 P6SM NSW SCT004 BKN009 OVC024 FM161600 26006KT P6SM BKN024 FM161700 30012G20KT P6SM FEW040 FEW080 FM170300 32006KT P6SM SKC
KGMU 
36nm W 
161327Z 1613/1712 VRB04KT 6SM BR VCSH SCT004 OVC022 TEMPO 1613/1615 4SM -SHRA BKN004 OVC022 FM161500 26006KT P6SM BKN022 FM161700 30012G20KT P6SM FEW040 FEW080 FM170300 32006KT P6SM SKC
NOTAMs
Click for the latest NOTAMs
NOTAMs are issued by the DoD/FAA and will open in a separate window not controlled by AirNav.

 

 
 

FBO, Fuel Providers, and Aircraft Ground Support

  
 Business Name 
 
 Contact 
 
 Services / Description 
 
Fuel Prices
 
Comments
  
Union County Airport 864-429-1680
no information available

If you are affiliated with Union County Airport and would like to show here your services, contact info, web link, logo, and more, click here
100LL
SS $4.35 
 Updated 07-Oct-2019
 
   3 read write
SS=Self service
Update Fuel Prices
 

Would you like to see your business listed on this page?

 If your business provides an interesting product or service to pilots, flight crews, aircraft, or users of the Union County Airport, Troy Shelton Field, you should consider listing it here.  To start the listing process, click on the button below
 
Add a business
 

Other Pages about Union County Airport, Troy Shelton Field

Update a link
 
Copyright © AirNav, LLC. All rights reserved. Privacy Policy  Contact